RH
58 63 65 66 70 73 79 76 76 74 73 73 73 71 72 76 76 76 79 70 72 76
63 65 66 65 68 76 82 76 75 73 74 67 69 69 68 73 74 73 79 76 73 74
73 69 68 72 74 83 82 69 70 73 65 67 69 71 68 70 72 71 75 73 71 70
78 77 74 77 83 82 75 69 71 64 64 64 65 69 68 68 69 68 70 72 72 76
80 85 86 84 81 78 75 70 70 65 64 62 62 66 67 62 65 68 70 71 71 74
90 88 87 85 82 78 74 72 63 62 62 60 63 64 65 65 66 66 70 69 70 73
91 86 84 81 79 77 74 68 63 62 60 62 57 59 59 60 64 67 68 70 69 71
90 87 82 80 78 74 69 64 61 61 64 64 61 56 69 67 70 62 65 69 63 72
87 83 82 81 76 72 68 62 59 63 62 60 52 74 68 66 71 73 64 65 66 69
83 82 80 73 68 69 66 60 64 64 62 68 72 68 63 66 71 74 77 68 70 68
81 79 73 68 67 68 66 63 76 70 68 68 65 67 63 64 66 71 74 74 71 80
77 74 70 68 68 66 65 72 79 70 71 70 73 68 64 63 70 73 81 78 79 77
74 71 70 66 65 64 66 69 75 72 71 66 67 66 63 61 66 69 80 80 72 70
71 70 66 67 65 65 71 71 81 75 77 66 65 69 62 64 61 62 68 78 80 74
Wind_Speed
14 10 10 11 9 8 8 8 8 7 8 7 7 7 6 4 4 6 4 5 5 3
12 12 11 12 11 8 8 9 10 9 8 8 7 7 6 4 5 5 4 4 4 3
12 12 11 10 12 11 10 12 11 10 9 8 7 7 7 5 5 6 3 3 5 3
11 11 11 11 11 12 12 13 12 11 10 9 9 7 6 6 6 7 5 4 6 6
10 10 11 11 12 12 13 12 12 11 10 9 8 7 7 7 6 7 6 5 6 5
10 10 11 13 13 13 14 12 12 11 11 10 9 8 6 7 6 6 6 5 6 5
10 11 12 13 13 13 13 13 11 10 10 9 8 7 6 6 6 5 5 5 5 5
10 11 13 13 13 12 12 11 11 12 9 9 8 5 7 6 5 4 3 3 3 5
12 13 13 13 13 12 11 12 12 11 11 9 6 12 11 7 5 4 3 4 3 3
14 14 13 13 14 13 13 12 11 11 10 8 7 12 11 9 4 3 2 1 4 5
14 14 13 13 12 11 11 12 10 10 9 9 6 11 10 8 4 2 1 1 5 6
15 15 15 14 12 11 11 9 9 9 10 9 6 10 9 7 4 6 6 6 6 6
14 15 15 14 13 10 10 9 9 9 8 12 8 10 9 7 4 5 5 4 5 8
12 13 12 13 10 11 10 9 9 10 7 8 8 8 10 11 4 4 4 5 3 2
Wind_Direction
178 177 179 174 165 161 159 149 142 135 129 125 121 112 109 108 105 100 98 84 75 81
178 176 177 176 167 157 143 146 146 139 134 125 123 118 121 115 108 99 103 94 92 92
177 174 169 165 164 153 147 146 146 139 136 126 122 124 118 112 115 105 102 102 89 74
173 169 167 163 156 151 145 150 146 143 136 132 127 128 120 120 119 110 109 93 97 87
167 157 153 151 142 147 148 149 142 140 137 136 133 134 138 130 129 130 129 121 103 118
154 152 141 138 146 149 145 141 142 144 141 141 140 134 138 137 142 143 154 151 138 154
149 146 145 146 145 145 144 141 143 143 141 141 137 134 139 138 141 149 174 181 160 175
152 144 140 141 141 140 141 142 139 136 130 122 116 117 115 116 118 139 172 192 192 201
145 144 146 140 138 136 136 139 137 134 132 125 114 124 124 128 119 97 144 150 119 159
147 145 147 142 142 142 144 143 137 133 129 121 123 129 118 120 120 122 101 221 138 130
146 145 144 145 145 141 147 149 137 133 126 125 128 131 125 115 118 122 114 170 156 114
149 146 148 149 147 147 145 134 131 134 131 130 136 144 140 121 108 90 74 78 97 115
148 150 153 150 152 151 146 134 132 132 139 147 145 158 150 136 128 112 109 94 116 134
145 148 150 146 147 143 138 130 134 135 142 146 157 166 161 153 140 140 139 154 165 159